Miscellaneous Local Product
Issued by NWS Hastings, NE

Home | Current Version | Previous Version | Graphics & Text | Print | Product List | Glossary On
Versions: 1 2 3 4 5 6 7 8 9 10 11 12 13 14 15 16 17 18 19 20 21 22 23 24 25 26 27 28 29 30 31 32 33 34 35 36 37 38 39 40 41 42 43 44 45 46 47 48 49 50
000
AXUS43 KGID 311902
MISGRI

GID CWA HOURLY WEATHER ROUNDUP
NATIONAL WEATHER SERVICE HASTINGS NE
200 PM CDT FRI JUL 31 2015

NOTE: "FAIR" INDICATES FEW OR NO CLOUDS BELOW 12,000 FEET WITH NO
SIGNIFICANT WEATHER AND/OR OBSTRUCTIONS TO VISIBILITY.

...SOUTH CENTRAL NEBRASKA...

CITY           SKY/WX    TMP DP  RH WIND       PRES   REMARKS
GRAND ISLAND   MOSUNNY   92  68  45 SW8       30.15F HX  96
HASTINGS       SUNNY     87  69  54 W7        30.17F HX  91
KEARNEY        SUNNY     88  66  48 S5        30.17S HX  90
ORD            SUNNY     91  65  41 W7        30.12F HX  93
YORK           SUNNY     88  73  62 SW8       30.15S HX  96
AURORA         MOSUNNY   88  71  57 SW6       30.15F HX  93
LEXINGTON      SUNNY     90  64  41 S5        30.18S HX  91
HOLDREGE       SUNNY     88  65  45 SW5       30.19F
HEBRON         SUNNY     88  64  44 SW5       30.15F

...NEBRASKA PANHANDLE...

CITY           SKY/WX    TMP DP  RH WIND       PRES   REMARKS
CHADRON        SUNNY     92  52  25 N8        30.18F
ALLIANCE       SUNNY     89  55  31 S10       30.22F
SCOTTSBLUFF    SUNNY     87  64  46 E9        30.22F
SIDNEY         SUNNY     88  54  31 SE9       30.26F

...WESTERN AND NORTH CENTRAL NEBRASKA...

CITY           SKY/WX    TMP DP  RH WIND       PRES   REMARKS
VALENTINE      SUNNY     93  49  22 MISG      30.16  HX  90
AINSWORTH      SUNNY     89  62  41 NE6       30.17F
ONEILL         SUNNY     88  66  47 E5        30.15S HX  90
BROKEN BOW     MOSUNNY   92  66  42 MISG      30.16F HX  94
IMPERIAL       SUNNY     91  55  29 SE8       30.21F
NORTH PLATTE   SUNNY     90  64  42 N3        30.18F HX  91
MCCOOK         SUNNY     93  62  35 MISG      30.18F HX  93

...EASTERN NEBRASKA...

CITY           SKY/WX    TMP DP  RH WIND       PRES   REMARKS
NORFOLK        SUNNY     91  67  44 NW5       30.11F HX  94
SO SIOUX CITY  SUNNY     85  69  58 VRB6      30.11F
TEKAMAH        PTSUNNY   87  73  62 CALM      30.10F HX  94
COLUMBUS       MOSUNNY   90  72  55 S8        30.10F HX  96
ALBION         MOSUNNY   92  64  39 SW9       30.12F HX  94
OMAHA EPPLEY   MOSUNNY   91  73  55 NW8       30.09F HX  99
OFFUTT AFB     SUNNY     89  73  59 W8        30.09F HX  96
MILLARD        SUNNY     88  74  61 W7        30.10F HX  96
LINCOLN        SUNNY     92  70  48 W12G17    30.12F HX  97
NEBRASKA CITY  SUNNY     86  68  55 W7        30.13S HX  90
BEATRICE       SUNNY     87  70  58 NW3       30.14S HX  91
FALLS CITY     SUNNY     86  72  62 SW5       30.12F HX  92

...NORTHERN KANSAS...

CITY           SKY/WX    TMP DP  RH WIND       PRES   REMARKS
GOODLAND       SUNNY     86  63  45 S13       30.24F
HILL CITY      SUNNY     90  63  40 CALM      30.17F HX  91
NORTON         CLEAR     88  61  40 CALM      30.17F
PHILLIPSBURG   SUNNY     91  63  38 CALM      30.16F HX  92
SMITH CENTER   SUNNY     90  63  40 SE7       30.17S HX  90
HAYS           SUNNY     90  63  40 S7        30.17F HX  90
RUSSELL        SUNNY     89  64  43 VRB5      30.15F HX  90
CONCORDIA      SUNNY     89  68  49 VRB6      30.14F HX  93
SALINA         PTSUNNY   90  71  53 VRB5      30.14F HX  96
TOPEKA         SUNNY     88  67  49 VRB3      30.13F HX  91



USA.gov is the U.S. government's official web portal to all federal, state and local government web resources and services.